When you browse on this site, cookies collect data to enhance your experience and personalize the content and advertising you see.
Visit our Privacy Policy to learn more. By continuing to use the site, you agree to this use of cookies and data.
  • In Österreich
  • Länderverzeichnis
  • Für 7 Tage
  • Wassertemperatur
  • Wetterkarte
  • News
  • Widgets
  • user-avatar
    Anmelden

    Stündliche Wetter Annaba

    Heute, 20 August, Dienstag

    Zeit Temperatur Niederschläge Wind Luftdruck Luftfeuchtigkeit
    00:00 +27°C° 0 mm 2 m/S 759 mmHg 86%
    01:00 +26°C° 0 mm 2 m/S 759 mmHg 86%
    02:00 +26°C° 0 mm 2 m/S 759 mmHg 86%
    03:00 +26°C° 0 mm 2 m/S 759 mmHg 87%
    04:00 +26°C° 0 mm 2 m/S 758 mmHg 87%
    05:00 +26°C° 0 mm 2 m/S 758 mmHg 83%
    06:00 +27°C° 0 mm 1 m/S 758 mmHg 80%
    07:00 +27°C° 0 mm 1 m/S 758 mmHg 76%
    08:00 +29°C° 0 mm 1 m/S 758 mmHg 67%
    09:00 +32°C° 0 mm 1 m/S 759 mmHg 57%
    10:00 +35°C° 0 mm 2 m/S 759 mmHg 48%
    11:00 +36°C° 0 mm 2 m/S 758 mmHg 46%
    12:00 +36°C° 0 mm 3 m/S 758 mmHg 44%
    13:00 +37°C° 0 mm 3 m/S 758 mmHg 43%
    14:00 +37°C° 0 mm 4 m/S 758 mmHg 43%
    15:00 +37°C° 0 mm 4 m/S 757 mmHg 44%
    16:00 +36°C° 0 mm 4 m/S 757 mmHg 44%
    17:00 +35°C° 0 mm 4 m/S 758 mmHg 51%
    18:00 +33°C° 0 mm 3 m/S 758 mmHg 58%
    19:00 +30°C° 0 mm 3 m/S 758 mmHg 65%
    20:00 +29°C° 0 mm 3 m/S 759 mmHg 71%
    21:00 +28°C° 0 mm 3 m/S 759 mmHg 78%
    22:00 +27°C° 0 mm 3 m/S 760 mmHg 85%
    23:00 +27°C° 0 mm 3 m/S 760 mmHg 86%

    Morgen, 21 August, Mittwoch

    Zeit Temperatur Niederschläge Wind Luftdruck Luftfeuchtigkeit
    00:00 +27°C° 0 mm 4 m/S 760 mmHg 88%
    01:00 +26°C° 0 mm 4 m/S 760 mmHg 89%
    02:00 +26°C° 0 mm 4 m/S 760 mmHg 89%
    03:00 +26°C° 0 mm 4 m/S 759 mmHg 88%
    04:00 +26°C° 0 mm 4 m/S 759 mmHg 88%
    05:00 +27°C° 0 mm 4 m/S 760 mmHg 86%
    06:00 +27°C° 0 mm 4 m/S 760 mmHg 84%
    07:00 +27°C° 0 mm 4 m/S 760 mmHg 82%
    08:00 +29°C° 0 mm 4 m/S 760 mmHg 76%
    09:00 +30°C° 0 mm 4 m/S 760 mmHg 69%
    10:00 +32°C° 0 mm 4 m/S 760 mmHg 63%
    11:00 +33°C° 0 mm 4 m/S 760 mmHg 59%
    12:00 +34°C° 0 mm 4 m/S 760 mmHg 55%
    13:00 +35°C° 0 mm 4 m/S 760 mmHg 51%
    14:00 +35°C° 0 mm 4 m/S 759 mmHg 53%
    15:00 +34°C° 0 mm 4 m/S 759 mmHg 56%
    16:00 +34°C° 0 mm 4 m/S 758 mmHg 59%
    17:00 +33°C° 0 mm 4 m/S 759 mmHg 65%
    18:00 +30°C° 0 mm 3 m/S 759 mmHg 72%
    19:00 +29°C° 0 mm 3 m/S 759 mmHg 78%
    20:00 +28°C° 0 mm 2 m/S 760 mmHg 81%
    21:00 +27°C° 0 mm 2 m/S 760 mmHg 83%
    22:00 +27°C° 0 mm 1 m/S 761 mmHg 85%
    23:00 +26°C° 0 mm 1 m/S 760 mmHg 86%

    übermorgen, 22 August, Donnerstag

    Zeit Temperatur Niederschläge Wind Luftdruck Luftfeuchtigkeit
    00:00 +26°C° 0 mm 1 m/S 760 mmHg 87%
    01:00 +26°C° 0 mm 1 m/S 760 mmHg 87%
    02:00 +26°C° 0 mm 1 m/S 760 mmHg 88%
    03:00 +26°C° 0 mm 1 m/S 759 mmHg 88%
    04:00 +25°C° 0 mm 1 m/S 759 mmHg 89%
    05:00 +26°C° 0 mm 1 m/S 759 mmHg 86%
    06:00 +26°C° 0 mm 1 m/S 760 mmHg 84%
    07:00 +27°C° 0 mm 1 m/S 760 mmHg 82%
    08:00 +29°C° 0 mm 1 m/S 760 mmHg 72%
    09:00 +31°C° 0 mm 1 m/S 760 mmHg 63%
    10:00 +33°C° 0 mm 1 m/S 760 mmHg 54%
    11:00 +35°C° 0 mm 2 m/S 760 mmHg 52%
    12:00 +35°C° 0 mm 3 m/S 759 mmHg 51%
    13:00 +36°C° 0 mm 4 m/S 759 mmHg 49%
    14:00 +35°C° 0.3 mm 4 m/S 759 mmHg 53%
    15:00 +34°C° 0.3 mm 4 m/S 759 mmHg 57%
    16:00 +33°C° 0.3 mm 5 m/S 758 mmHg 61%
    17:00 +31°C° 0.7 mm 3 m/S 759 mmHg 64%
    18:00 +30°C° 0.7 mm 2 m/S 759 mmHg 68%
    19:00 +29°C° 0.7 mm 1 m/S 760 mmHg 72%
    20:00 +28°C° 0.5 mm 1 m/S 760 mmHg 75%
    21:00 +27°C° 0.5 mm 2 m/S 761 mmHg 78%
    22:00 +27°C° 0.5 mm 2 m/S 761 mmHg 81%
    23:00 +27°C° 0 mm 2 m/S 761 mmHg 82%

    23 August, Freitag

    Zeit Temperatur Niederschläge Wind Luftdruck Luftfeuchtigkeit
    00:00 +27°C° 0 mm 2 m/S 760 mmHg 84%
    01:00 +26°C° 0 mm 2 m/S 760 mmHg 85%
    02:00 +26°C° 0 mm 1 m/S 760 mmHg 85%
    03:00 +26°C° 0 mm 1 m/S 760 mmHg 85%
    04:00 +26°C° 0 mm 1 m/S 760 mmHg 85%
    05:00 +27°C° 0 mm 1 m/S 760 mmHg 84%
    06:00 +27°C° 0 mm 1 m/S 760 mmHg 82%
    07:00 +27°C° 0 mm 1 m/S 761 mmHg 81%
    08:00 +28°C° 0 mm 1 m/S 761 mmHg 77%
    09:00 +29°C° 0 mm 1 m/S 761 mmHg 73%
    10:00 +29°C° 0 mm 1 m/S 761 mmHg 69%
    11:00 +31°C° 0 mm 2 m/S 761 mmHg 64%
    12:00 +32°C° 0 mm 2 m/S 760 mmHg 59%
    13:00 +34°C° 0 mm 3 m/S 760 mmHg 54%
    14:00 +34°C° 0.1 mm 3 m/S 760 mmHg 57%
    15:00 +33°C° 0.1 mm 4 m/S 759 mmHg 59%
    16:00 +33°C° 0.1 mm 4 m/S 759 mmHg 61%
    17:00 +30°C° 0.2 mm 4 m/S 759 mmHg 66%
    18:00 +29°C° 0.2 mm 3 m/S 759 mmHg 70%
    19:00 +28°C° 0.2 mm 2 m/S 759 mmHg 74%
    20:00 +28°C° 0.1 mm 2 m/S 760 mmHg 77%
    21:00 +27°C° 0.1 mm 1 m/S 760 mmHg 79%
    22:00 +25°C° 0.1 mm 0 m/S 760 mmHg 81%
    23:00 +25°C° 0 mm 0 m/S 760 mmHg 81%

    24 August, Samstag

    Zeit Temperatur Niederschläge Wind Luftdruck Luftfeuchtigkeit
    00:00 +25°C° 0 mm 0 m/S 760 mmHg 81%
    01:00 +24°C° 0 mm 0 m/S 759 mmHg 81%
    02:00 +24°C° 0 mm 0 m/S 759 mmHg 83%
    03:00 +26°C° 0 mm 1 m/S 759 mmHg 84%
    04:00 +26°C° 0 mm 1 m/S 759 mmHg 85%
    05:00 +26°C° 0 mm 1 m/S 759 mmHg 84%
    06:00 +26°C° 0 mm 1 m/S 759 mmHg 82%
    07:00 +27°C° 0 mm 1 m/S 759 mmHg 81%
    08:00 +28°C° 0 mm 1 m/S 760 mmHg 75%
    09:00 +29°C° 0 mm 1 m/S 760 mmHg 69%
    10:00 +30°C° 0 mm 1 m/S 760 mmHg 63%
    11:00 +32°C° 0 mm 1 m/S 760 mmHg 59%
    12:00 +34°C° 0 mm 2 m/S 759 mmHg 55%
    13:00 +35°C° 0 mm 2 m/S 759 mmHg 50%
    14:00 +35°C° 0 mm 3 m/S 759 mmHg 52%
    15:00 +34°C° 0 mm 3 m/S 759 mmHg 53%
    16:00 +34°C° 0 mm 4 m/S 758 mmHg 55%
    17:00 +33°C° 0.1 mm 3 m/S 758 mmHg 58%
    18:00 +30°C° 0.1 mm 3 m/S 758 mmHg 62%
    19:00 +29°C° 0.1 mm 2 m/S 758 mmHg 66%
    20:00 +29°C° 0.2 mm 2 m/S 759 mmHg 69%
    21:00 +28°C° 0.2 mm 2 m/S 759 mmHg 71%
    22:00 +28°C° 0.2 mm 1 m/S 759 mmHg 73%
    23:00 +28°C° 0 mm 1 m/S 759 mmHg 74%

    25 August, Sonntag

    Zeit Temperatur Niederschläge Wind Luftdruck Luftfeuchtigkeit
    00:00 +28°C° 0 mm 1 m/S 759 mmHg 75%
    01:00 +28°C° 0 mm 1 m/S 759 mmHg 76%
    02:00 +27°C° 0 mm 1 m/S 758 mmHg 77%
    03:00 +27°C° 0 mm 1 m/S 758 mmHg 79%
    04:00 +27°C° 0 mm 1 m/S 758 mmHg 80%
    05:00 +27°C° 0 mm 1 m/S 758 mmHg 78%
    06:00 +27°C° 0 mm 1 m/S 758 mmHg 76%
    07:00 +27°C° 0 mm 1 m/S 758 mmHg 74%
    08:00 +30°C° 0 mm 1 m/S 758 mmHg 66%
    09:00 +32°C° 0 mm 1 m/S 759 mmHg 57%
    10:00 +34°C° 0 mm 1 m/S 759 mmHg 49%
    11:00 +34°C° 0 mm 1 m/S 758 mmHg 47%
    12:00 +36°C° 0 mm 2 m/S 758 mmHg 45%
    13:00 +36°C° 0 mm 3 m/S 758 mmHg 44%
    14:00 +36°C° 0 mm 3 m/S 758 mmHg 44%
    15:00 +36°C° 0 mm 4 m/S 757 mmHg 44%
    16:00 +36°C° 0 mm 5 m/S 757 mmHg 45%
    17:00 +35°C° 0 mm 4 m/S 757 mmHg 48%
    18:00 +34°C° 0 mm 4 m/S 757 mmHg 51%
    19:00 +33°C° 0 mm 3 m/S 757 mmHg 54%
    20:00 +31°C° 0 mm 2 m/S 758 mmHg 56%
    21:00 +30°C° 0 mm 2 m/S 758 mmHg 57%
    22:00 +30°C° 0 mm 1 m/S 758 mmHg 58%
    23:00 +30°C° 0 mm 1 m/S 758 mmHg 60%
    Mehr zeigen